Orbital Elements at Epoch 2454341.5 (2007-Aug-29.0) TDB
Reference: JPL 17 (heliocentric ecliptic J2000)
Element | Value | Uncertainty (1-sigma) | Units |
e | .4124512312570384 | 2.6948e-06 | |
a | 3.490347304738352 | 5.2366e-06 | au |
q | 2.050749261384333 | 9.5465e-06 | au |
i | 8.021636682908646 | 3.5427e-05 | deg |
node | 57.11785513368926 | 0.00075278 | deg |
peri | 95.62396841446541 | 0.00084547 | deg |
M | 26.7093720149622 | 0.00036658 | deg |
tp | 2454164.789413559499 (2007-Mar-05.28941356) | 0.0028219 | TDB |
period | 2381.778616245403 6.52 | 0.0053601 1.468e-05 | d yr |
n | .1511475489554517 | 3.4015e-07 | deg/d |
Q | 4.92994534809237 | 7.3965e-06 | au |
|
| | Orbit Determination Parameters
Additional Information
|